Location: Newark
(50.0306°N, 2.3272°E)
Time: 12:41:21
(UTC+00:00)

Vanguard 1 - Pass Details

Date: 10 December 2019
Orbit: 651 x 3832 km, 34.2° (Epoch: 17 January)

Event Time Altitude Azimuth Distance (km) Brightness Sun altitude
Exits shadow 03:05:48 17° 197° (SSW) 6,313 13.8 -42.3°
Maximum altitude 03:20:54 34° 150° (SSE) 5,039 13.6 -40.0°
Drops below altitude 10° 03:36:59 10° 96° (E) 5,851 14.7 -37.4°
Sets 03:41:24 0° 87° (E) 6,480 15.2 -36.7°
